Temperature
21 20 20 20 24 24 23 23 23 23 23 22 21 22 22 22 22 20 17 17 17 17 17 17 17 17 17 17 17 17 17 17 17 17 17 17 17 17 17 17 17 17 17 17 17 17 17 17 18
21 21 20 22 25 24 23 23 23 23 22 21 21 22 22 21 19 18 17 17 17 17 17 17 17 17 17 17 17 17 17 17 17 17 17 17 17 17 17 17 17 17 17 17 17 17 17 17 17
21 21 22 24 24 24 23 23 23 22 21 22 22 21 21 20 19 18 17 17 17 17 17 17 17 17 17 17 17 17 17 17 17 17 17 17 17 17 17 17 17 17 17 17 17 17 17 17 17
21 21 23 25 23 23 23 23 23 23 22 21 22 21 20 18 18 18 17 17 17 17 17 17 17 17 17 17 17 17 17 17 17 17 17 17 17 17 17 17 17 17 17 17 17 17 17 17 17
21 23 25 24 23 23 24 23 23 23 22 22 22 22 20 18 18 17 17 17 17 17 17 17 17 17 17 17 17 17 17 17 17 17 17 17 17 17 17 17 17 17 17 17 17 17 17 17 17
23 25 24 24 23 23 23 23 23 23 22 22 22 22 20 18 18 17 17 17 17 17 17 17 17 17 17 17 17 17 17 17 17 17 17 17 17 17 17 17 17 17 17 17 17 17 17 17 17
24 25 24 24 23 23 23 23 23 23 23 22 22 22 20 18 18 18 17 17 17 17 17 17 17 17 17 17 17 17 17 17 17 17 17 17 17 17 17 17 17 17 17 17 17 17 16 16 16
23 25 24 24 23 23 23 22 22 23 22 21 21 22 21 19 18 18 17 17 17 17 17 17 17 17 17 17 17 17 17 17 17 17 17 17 16 16 16 16 16 16 16 16 16 16 16 16 16
23 25 24 24 23 23 23 23 22 21 21 20 20 20 19 18 18 18 18 18 18 17 17 17 17 17 17 17 17 17 17 17 17 16 17 16 16 16 16 16 16 16 16 16 16 16 16 16 16
24 24 24 24 24 24 23 23 22 22 22 21 20 19 18 18 18 18 18 18 18 18 17 17 17 17 17 17 17 17 16 16 16 16 16 16 16 16 16 16 16 16 16 16 16 16 16 16 15
24 24 24 23 23 23 23 22 22 22 22 22 21 19 18 18 18 18 18 18 18 18 17 17 17 17 17 17 17 16 16 16 16 16 16 16 16 16 16 16 16 16 16 15 16 16 15 15 15
24 23 23 23 22 22 23 22 22 21 21 20 20 19 19 18 18 18 18 18 18 17 17 17 17 17 17 17 17 16 16 16 16 16 16 16 16 16 16 16 16 15 15 15 15 15 15 15 15
24 23 22 22 21 22 22 22 21 21 20 19 19 19 18 18 18 18 18 18 18 18 17 17 17 17 17 17 17 16 16 16 16 16 16 16 16 16 16 16 15 15 15 15 15 15 15 15 15
23 23 23 22 22 22 22 22 21 20 19 19 19 19 18 18 18 18 18 18 18 18 17 17 17 17 17 17 17 16 16 16 16 16 16 16 16 16 16 16 15 15 15 15 15 15 15 15 15
23 23 23 23 23 22 23 22 22 20 20 19 19 19 18 18 18 18 18 18 18 17 17 17 17 17 17 17 17 16 16 16 16 16 16 16 16 16 16 16 15 15 15 15 15 15 15 15 15
24 24 23 23 23 22 23 22 22 20 20 20 19 19 18 18 18 18 18 17 17 17 17 17 17 17 17 17 16 16 16 16 16 16 16 16 15 15 15 15 15 15 15 15 15 15 15 15 15
24 24 23 23 23 23 23 22 22 20 20 20 20 19 19 18 18 18 17 17 17 17 17 17 17 17 17 16 16 16 16 16 16 15 15 15 15 15 15 15 15 15 15 15 15 15 15 15 14
24 24 23 23 23 23 23 22 22 21 20 20 20 20 19 19 18 18 17 17 17 17 17 17 17 16 16 16 16 16 16 16 16 15 15 15 15 15 15 15 15 15 15 15 15 14 14 14 14
24 24 24 23 23 23 23 22 23 22 20 20 20 20 20 19 19 18 17 17 17 17 17 17 16 16 16 16 16 16 16 16 15 15 15 15 15 15 15 15 15 15 15 14 14 14 14 14 14
24 24 24 23 23 23 23 23 23 22 21 21 21 20 20 19 19 18 18 17 17 17 17 16 16 16 16 16 16 16 15 15 15 15 15 15 15 15 15 15 15 15 15 14 14 14 14 14 14
23 24 24 23 23 23 23 23 23 23 21 20 20 20 20 19 19 18 17 17 17 17 16 16 16 16 16 16 15 15 15 15 15 15 15 15 15 15 15 15 14 14 14 14 14 14 14 14 14
23 24 23 23 23 23 23 23 23 23 22 22 21 20 20 19 19 18 18 17 17 17 17 16 16 16 16 16 15 15 15 15 15 15 14 14 14 14 15 14 14 14 14 14 14 14 14 14 14
23 23 23 23 23 23 23 23 24 23 23 23 22 21 20 19 19 18 18 17 17 17 17 17 16 16 16 16 15 15 15 15 14 14 14 14 14 14 14 14 14 14 14 14 14 14 14 14 13
23 23 23 23 23 23 23 23 23 24 23 23 22 21 20 19 18 18 18 17 17 17 17 17 16 16 16 16 15 15 15 14 14 14 14 14 14 14 14 14 14 14 14 14 14 14 13 13 13
23 23 23 22 22 23 23 23 23 24 23 23 22 21 20 19 18 18 17 17 17 17 17 17 16 16 16 16 15 15 14 14 14 14 14 14 14 14 14 14 14 14 14 14 14 13 13 13 13
23 24 23 22 22 23 22 23 24 23 22 21 21 21 19 19 18 17 17 17 17 16 16 16 16 16 16 15 15 15 14 14 14 14 14 14 14 14 14 14 14 13 13 13 13 13 13 13 13
23 23 23 23 23 22 23 23 23 22 22 21 21 20 19 19 18 17 17 17 17 16 16 16 16 16 16 15 15 15 14 14 14 13 13 13 13 13 13 13 13 13 13 13 13 13 13 13 13
23 23 23 23 22 22 22 23 23 22 22 22 21 21 20 19 18 17 17 17 16 16 16 16 16 15 15 15 15 14 14 14 14 13 13 13 13 13 13 13 13 13 13 13 13 13 13 13 13
22 22 22 23 22 22 22 23 23 23 23 22 22 20 19 18 18 17 16 16 16 16 16 16 15 15 15 15 14 14 14 14 14 13 13 13 13 13 13 13 13 13 12 13 13 12 12 12 12
22 23 23 22 22 22 22 23 23 23 22 21 21 20 19 18 17 17 16 16 16 16 15 15 15 15 15 14 14 14 14 13 13 13 13 13 13 13 13 12 12 12 12 12 12 12 12 12 12
Wind_Speed
5 3 2 2 2 3 6 5 4 5 4 6 6 5 6 7 5 5 3 4 5 5 6 7 9 9 8 9 9 9 10 10 10 11 12 12 12 11 12 11 11 11 10 10 10 10 9 9 8
3 2 2 1 1 5 6 5 6 7 6 5 5 6 6 7 6 5 4 4 4 6 6 8 9 9 9 9 9 9 10 10 11 11 12 12 12 12 12 12 11 11 11 11 10 10 10 10 9
4 2 1 1 3 5 6 6 7 7 5 3 4 5 5 5 5 4 4 4 5 6 7 9 8 8 9 9 9 10 10 11 11 11 11 12 12 12 12 11 11 11 11 10 10 10 10 11 10
2 1 1 4 9 7 6 6 6 7 5 4 4 6 6 5 4 5 5 5 6 6 7 9 8 8 9 9 9 10 10 11 10 10 10 11 11 12 12 12 11 10 10 10 10 10 10 10 10
1 1 4 7 8 6 6 5 5 6 5 6 5 7 7 5 6 7 6 5 6 6 6 8 9 9 9 10 10 10 10 10 10 10 10 11 11 11 11 11 11 11 10 10 10 10 10 11 11
1 1 4 7 8 6 6 5 5 6 7 6 6 8 6 5 6 6 5 5 5 5 6 7 8 8 9 9 9 10 10 10 10 10 10 10 10 11 11 10 10 10 10 10 10 11 11 11 11
1 2 5 8 7 6 5 4 4 5 7 6 4 6 7 6 5 5 5 5 5 5 5 5 6 7 8 9 9 9 10 10 10 10 10 10 10 10 10 10 9 10 10 10 10 11 11 11 11
1 3 6 6 6 6 6 5 4 5 6 5 2 4 5 6 5 5 4 4 5 4 4 5 6 6 6 8 9 8 9 9 9 9 9 7 7 8 8 9 9 10 10 10 11 11 12 12 12
1 3 5 5 4 6 6 6 6 5 6 5 4 5 6 7 6 5 4 4 4 3 3 4 4 5 5 6 6 6 7 6 5 6 6 3 6 7 7 11 9 9 10 10 10 10 10 9 11
1 3 5 4 4 6 7 5 5 5 6 5 6 6 7 7 6 5 3 3 3 3 3 3 3 4 4 5 4 4 5 5 4 5 5 5 6 6 7 9 9 9 8 9 9 7 5 4 7
3 4 6 5 5 6 7 6 5 5 4 3 4 7 7 6 5 4 3 2 2 2 2 2 2 3 3 3 3 3 3 3 3 4 5 4 4 4 5 4 5 6 5 6 5 4 6 7 7
5 5 5 5 5 6 6 6 5 4 4 4 4 7 7 5 4 3 2 2 2 2 1 1 1 2 2 2 2 2 2 3 3 3 4 4 3 4 4 4 4 4 5 5 5 4 6 7 7
5 5 5 5 6 6 7 6 5 4 4 5 6 7 6 5 3 3 2 2 2 2 2 1 1 1 1 2 1 1 2 2 3 3 3 3 3 3 3 3 4 4 4 4 4 4 5 6 7
5 5 6 5 6 6 6 4 3 3 4 5 6 6 5 4 3 2 2 1 1 1 1 1 1 1 1 1 1 2 2 2 2 3 2 3 2 2 2 3 3 4 4 4 4 5 4 5 5
6 6 5 3 4 4 4 3 2 3 6 5 5 5 4 3 2 1 1 1 1 1 1 1 1 1 1 1 2 2 2 2 2 3 3 3 2 2 2 2 2 2 3 3 3 4 4 4 4
4 4 4 3 2 3 4 2 3 4 6 5 4 4 4 3 2 1 1 1 1 1 1 2 1 1 2 2 2 2 2 3 3 2 3 3 3 2 2 1 2 2 2 2 2 2 3 3 3
5 4 4 4 2 3 4 2 2 4 6 5 5 4 4 3 3 2 1 1 1 1 1 2 2 2 2 2 2 2 2 2 2 2 3 3 3 2 2 1 1 2 1 1 1 1 2 3 3
5 4 4 3 3 4 4 3 2 4 5 5 5 5 5 4 4 3 2 1 1 1 1 2 2 2 2 2 1 2 2 2 2 2 2 3 3 2 2 1 1 1 1 1 1 2 1 2 1
3 4 3 1 2 3 4 4 4 4 5 6 5 5 5 5 4 4 3 2 2 2 1 1 1 2 2 1 0 0 1 1 1 2 2 2 2 2 1 1 1 0 0 0 1 1 2 1 1
5 5 3 2 2 3 4 5 4 4 6 6 6 6 6 6 5 5 4 3 2 2 1 1 1 2 1 1 0 0 1 1 1 1 2 2 2 1 1 0 0 1 0 1 1 1 1 1 1
6 6 4 3 2 4 5 5 5 3 4 5 6 6 6 6 7 6 5 5 4 3 3 2 1 2 2 1 1 0 0 1 1 0 1 1 2 1 1 1 1 1 1 1 2 2 2 2 1
6 4 5 5 6 4 5 5 4 4 4 4 5 5 6 7 7 6 6 6 5 4 3 3 3 2 2 2 2 1 1 1 2 1 1 1 1 1 1 1 1 1 1 2 2 3 2 3 2
3 2 5 6 7 7 6 7 3 5 4 3 3 4 5 6 7 7 7 6 6 5 4 3 3 3 2 2 2 2 2 1 1 1 1 1 1 1 1 2 2 2 2 3 2 3 3 3 3
4 4 4 5 6 8 5 6 4 4 3 3 3 3 4 5 6 7 6 6 5 5 4 4 4 3 3 3 3 3 2 1 1 1 1 1 1 1 2 2 2 3 2 3 3 3 3 3 3
7 6 5 5 6 5 2 6 4 1 1 2 3 3 3 4 5 6 6 6 6 5 5 5 4 4 3 4 3 3 3 2 2 1 1 2 2 2 2 2 3 3 3 3 3 4 3 3 3
7 7 5 4 5 4 4 5 2 1 1 2 2 2 3 3 4 5 6 6 6 5 5 5 5 4 4 4 3 3 2 2 2 2 2 3 2 2 2 2 2 3 3 3 3 3 3 3 4
6 7 6 6 6 6 4 4 3 3 3 2 2 2 3 3 4 4 5 5 5 5 5 5 5 4 4 4 3 3 2 2 2 3 3 3 3 3 3 3 3 2 2 2 3 3 3 3 3
4 5 5 6 6 7 5 6 4 4 4 3 3 3 2 3 3 4 4 4 4 4 4 4 4 4 4 4 3 2 3 2 2 2 3 3 3 3 3 3 3 3 3 3 3 3 3 3 3
5 6 6 6 6 6 6 3 1 3 3 4 4 3 2 3 3 3 3 3 3 3 4 4 4 4 4 4 4 3 3 3 3 3 3 3 3 3 3 4 3 3 3 3 3 3 3 3 3
6 7 8 8 7 7 8 4 2 1 2 3 3 2 2 3 3 3 3 3 3 3 3 3 3 4 3 3 3 4 4 3 4 3 3 4 3 3 3 4 4 4 4 4 4 4 3 4 4
Wind_Direction
160 161 198 231 186 98 78 73 75 85 74 64 61 63 65 49 37 64 58 36 41 48 47 55 49 53 63 67 70 69 68 68 68 70 70 68 66 70 73 70 70 71 70 67 64 63 60 59 59
155 174 222 245 143 105 86 82 81 74 92 95 77 71 72 66 58 79 79 58 57 58 52 53 51 53 61 66 68 70 71 68 67 69 69 69 68 69 70 68 69 70 69 66 63 61 60 60 60
157 222 272 92 74 78 98 93 95 94 93 85 83 64 59 69 70 78 76 83 73 64 56 59 50 58 64 66 67 70 70 69 69 68 68 68 68 69 71 71 68 68 69 66 63 60 61 61 61
193 197 165 96 87 74 86 102 110 112 94 75 91 89 81 64 70 86 96 91 79 71 62 63 55 61 64 64 66 67 67 67 67 68 69 70 69 69 71 71 69 66 66 64 61 59 60 62 61
224 199 118 103 92 89 89 96 110 100 95 87 88 95 92 79 83 97 104 92 80 74 65 68 61 62 65 65 66 65 66 66 64 66 69 71 72 72 72 69 67 66 65 64 62 61 62 63 62
195 168 121 108 104 104 104 111 110 97 102 106 101 102 96 102 103 102 102 94 82 76 69 74 78 66 66 66 66 65 64 62 62 65 69 69 69 70 68 66 64 64 65 67 65 65 66 66 63
112 107 107 113 118 115 110 115 110 104 102 93 98 103 113 118 112 115 110 99 89 82 74 71 78 86 84 72 65 65 64 61 60 63 67 68 69 67 64 64 63 64 66 68 69 67 66 66 64
80 129 118 117 123 111 115 112 94 96 94 92 81 97 114 129 130 128 121 108 95 87 80 73 73 69 74 84 76 69 67 63 62 62 62 70 83 81 71 69 66 68 68 69 70 70 69 68 65
175 134 116 115 122 116 126 121 104 95 103 100 84 73 93 127 139 134 125 117 101 88 82 75 73 75 73 73 83 86 85 75 81 80 75 69 63 61 67 61 70 73 71 70 71 71 72 77 76
106 105 96 97 109 117 125 121 126 130 115 111 109 100 112 133 140 135 126 117 104 88 78 71 71 75 75 73 75 67 69 66 58 60 63 53 52 57 60 83 77 78 80 81 75 78 89 70 73
84 93 102 106 112 121 123 113 117 130 113 105 120 128 135 138 137 129 115 96 78 80 71 63 63 74 72 81 65 61 65 67 58 49 62 56 49 58 60 64 84 82 76 70 83 79 62 64 62
106 95 100 103 112 124 128 124 116 103 84 81 105 126 134 138 132 126 109 89 80 75 66 53 54 81 75 72 67 48 53 52 49 40 45 49 42 38 53 55 57 56 59 58 58 60 69 68 69
116 108 104 106 113 121 122 118 107 93 87 98 110 119 128 129 127 120 104 98 78 75 79 71 72 68 68 69 60 51 52 42 51 44 33 49 40 40 58 68 69 61 58 62 60 65 69 67 64
117 117 111 116 126 129 126 117 134 114 128 125 124 129 135 131 129 112 92 84 62 62 68 78 93 79 47 66 68 52 48 49 32 37 28 40 39 35 52 65 66 64 61 58 63 68 68 70 69
134 132 124 125 150 153 155 129 139 144 148 140 141 138 135 133 131 125 104 66 44 58 64 74 70 64 62 61 61 54 44 47 38 29 16 29 31 33 63 57 73 73 76 77 72 80 78 81 84
163 171 158 137 168 173 201 149 116 149 166 161 161 154 157 152 158 154 124 102 72 70 72 91 101 100 82 68 69 67 59 47 38 28 19 19 22 29 61 68 77 84 84 82 86 82 86 85 81
182 178 167 148 165 182 203 190 137 163 183 184 186 184 184 177 180 179 181 167 112 93 87 112 118 112 100 87 72 54 60 53 42 29 22 12 23 27 60 65 75 98 103 93 101 99 79 84 80
176 181 183 171 147 184 199 212 203 186 201 206 200 201 201 200 196 189 185 183 158 130 109 116 118 115 112 109 89 73 54 51 44 30 24 18 22 32 53 77 79 89 111 105 141 129 109 86 86
190 205 203 195 171 211 220 232 242 214 212 219 214 210 208 209 202 185 182 182 177 156 149 143 146 133 131 121 127 71 33 27 42 33 28 30 27 28 47 49 68 143 190 229 210 156 131 129 130
210 215 215 185 162 231 245 254 251 230 224 229 227 218 213 212 205 192 187 187 193 180 183 169 182 172 157 141 221 288 328 320 359 19 18 14 18 16 16 329 208 194 198 206 207 193 218 180 233
216 228 234 241 211 218 250 243 216 203 214 226 233 233 226 217 215 199 194 199 197 195 189 182 187 178 162 154 144 90 54 311 300 312 337 348 349 3 323 310 273 239 219 207 223 213 221 228 230
226 230 237 229 234 241 243 270 219 201 214 215 220 219 222 218 217 208 197 197 198 199 186 188 181 182 168 167 180 204 254 277 284 295 296 305 331 330 317 294 268 248 243 232 232 227 232 228 229
245 215 223 234 247 256 239 263 232 197 217 211 210 212 215 214 213 207 201 198 198 192 183 184 180 182 182 192 202 232 252 272 280 295 305 294 310 307 298 285 259 241 238 241 246 234 236 233 245
183 185 196 221 244 250 245 255 253 205 221 225 210 206 208 210 207 205 197 192 193 186 186 187 188 191 198 207 219 228 239 250 279 282 283 277 273 276 271 271 264 252 242 239 240 232 223 237 244
212 226 229 225 228 243 214 252 258 197 221 250 245 221 207 201 198 193 189 188 191 191 192 194 196 200 203 213 223 232 239 247 252 273 264 277 275 262 266 267 266 261 251 249 234 225 231 227 230
213 233 246 259 259 261 227 251 252 155 242 258 248 215 191 187 188 188 190 190 192 194 196 201 202 208 210 216 227 238 240 258 275 282 290 284 283 275 270 260 264 264 254 244 227 232 234 237 235
214 225 256 269 275 267 242 240 237 201 209 200 193 179 181 182 185 189 189 190 195 198 201 206 207 210 211 215 222 229 233 240 268 282 287 284 283 286 269 255 247 244 236 234 229 231 232 236 240
254 220 223 242 259 261 254 248 244 197 205 208 213 207 194 188 186 188 191 192 195 199 205 207 212 214 218 220 218 222 231 242 264 267 275 275 278 281 274 258 251 235 222 217 222 238 239 233 230
194 209 228 241 251 262 270 260 229 229 227 236 234 226 214 206 201 190 187 188 192 194 194 200 211 219 221 224 227 225 230 231 239 248 261 266 270 271 271 258 249 240 233 221 216 228 227 234 234
241 234 230 242 244 248 267 269 108 230 250 257 256 241 220 209 202 192 184 182 188 194 197 207 215 220 223 226 231 234 231 230 238 245 250 252 255 263 266 259 248 240 237 232 228 229 228 235 238
Height
1523 1523 1523 1525 1524 1523 1529 1530 1528 1530 1531 1534 1534 1533 1533 1534 1536 1544 1544 1541 1540 1539 1538 1537 1535 1535 1534 1534 1534 1533 1533 1533 1532 1532 1531 1531 1530 1529 1529 1529 1528 1528 1527 1527 1526 1526 1525 1524 1524
1524 1524 1526 1525 1521 1528 1534 1530 1531 1532 1534 1535 1535 1535 1535 1538 1541 1543 1543 1542 1541 1541 1540 1539 1537 1536 1536 1536 1536 1535 1535 1535 1534 1534 1534 1533 1532 1532 1531 1530 1530 1529 1529 1528 1528 1527 1526 1525 1524
1524 1525 1527 1523 1524 1529 1533 1531 1532 1535 1536 1536 1537 1538 1539 1542 1544 1544 1544 1543 1543 1542 1541 1540 1539 1538 1538 1538 1538 1537 1537 1537 1536 1536 1536 1535 1534 1533 1533 1532 1532 1531 1531 1530 1529 1529 1528 1527 1525
1526 1527 1527 1524 1530 1531 1530 1531 1533 1535 1537 1537 1537 1539 1542 1545 1545 1545 1544 1544 1544 1544 1543 1542 1541 1540 1540 1540 1539 1539 1539 1539 1538 1538 1537 1537 1536 1536 1535 1534 1534 1533 1532 1532 1531 1530 1529 1528 1527
1527 1527 1525 1529 1532 1532 1532 1533 1534 1534 1537 1538 1539 1540 1544 1546 1546 1546 1546 1546 1546 1545 1545 1544 1542 1542 1542 1541 1541 1541 1541 1541 1540 1540 1539 1539 1538 1537 1537 1536 1536 1535 1534 1533 1533 1532 1531 1529 1528
1528 1525 1527 1532 1534 1533 1534 1536 1536 1536 1538 1540 1541 1541 1545 1547 1547 1547 1547 1547 1547 1547 1546 1546 1544 1544 1544 1544 1543 1543 1543 1542 1542 1542 1541 1541 1540 1540 1539 1538 1538 1537 1536 1535 1534 1533 1532 1531 1529
1528 1525 1528 1531 1534 1534 1535 1537 1536 1537 1539 1541 1542 1542 1546 1548 1548 1548 1548 1549 1549 1548 1548 1548 1548 1547 1546 1545 1545 1545 1544 1544 1544 1543 1543 1542 1542 1541 1540 1540 1539 1538 1538 1537 1535 1534 1533 1532 1531
1528 1527 1529 1531 1534 1535 1537 1538 1539 1539 1541 1544 1544 1543 1546 1549 1549 1549 1550 1550 1550 1550 1550 1549 1549 1549 1549 1548 1546 1546 1546 1545 1545 1545 1544 1544 1544 1543 1542 1541 1540 1540 1539 1538 1537 1536 1535 1534 1532
1529 1528 1531 1532 1534 1535 1538 1539 1541 1542 1543 1545 1545 1546 1548 1549 1549 1550 1551 1551 1551 1551 1551 1551 1551 1550 1550 1549 1548 1548 1547 1547 1547 1546 1546 1546 1546 1545 1544 1543 1542 1541 1540 1539 1538 1537 1536 1535 1534
1529 1530 1532 1532 1533 1535 1538 1539 1541 1543 1543 1545 1547 1548 1548 1549 1550 1551 1552 1552 1552 1552 1552 1552 1552 1551 1551 1550 1550 1550 1549 1548 1548 1548 1548 1547 1547 1546 1545 1544 1543 1542 1541 1540 1540 1539 1538 1538 1537
1530 1531 1533 1535 1536 1537 1539 1541 1543 1542 1543 1545 1547 1548 1549 1550 1551 1552 1552 1553 1553 1553 1553 1553 1552 1552 1552 1551 1551 1551 1550 1549 1549 1549 1549 1548 1548 1548 1547 1546 1545 1544 1543 1543 1541 1541 1541 1540 1538
1532 1534 1535 1537 1538 1539 1540 1542 1544 1545 1547 1548 1548 1549 1549 1550 1551 1552 1553 1553 1553 1553 1553 1553 1553 1553 1552 1552 1552 1551 1551 1551 1550 1550 1550 1549 1549 1548 1548 1547 1546 1545 1544 1544 1543 1542 1542 1541 1541
1534 1536 1538 1539 1540 1541 1542 1543 1545 1547 1548 1549 1549 1549 1550 1551 1552 1552 1553 1553 1553 1553 1553 1553 1553 1553 1553 1552 1552 1552 1551 1551 1551 1550 1550 1550 1549 1549 1549 1548 1547 1546 1545 1545 1544 1544 1543 1543 1542
1536 1537 1538 1540 1541 1542 1543 1545 1546 1548 1549 1549 1549 1550 1551 1551 1552 1552 1552 1553 1553 1553 1553 1553 1553 1553 1553 1553 1553 1552 1552 1551 1551 1551 1550 1550 1550 1550 1549 1549 1548 1547 1546 1546 1545 1545 1544 1544 1543
1537 1537 1539 1540 1541 1542 1542 1544 1546 1548 1549 1549 1549 1550 1551 1551 1552 1552 1552 1553 1553 1553 1553 1553 1553 1553 1553 1553 1552 1552 1552 1552 1551 1551 1551 1551 1550 1550 1549 1549 1549 1548 1547 1547 1546 1546 1545 1545 1544
1535 1536 1539 1540 1540 1541 1543 1545 1545 1547 1548 1548 1549 1550 1551 1551 1551 1552 1552 1552 1553 1553 1553 1552 1552 1552 1552 1552 1552 1552 1552 1551 1551 1551 1551 1550 1550 1550 1549 1549 1549 1549 1548 1548 1547 1547 1546 1546 1545
1534 1537 1538 1539 1539 1540 1540 1543 1544 1547 1547 1547 1548 1549 1550 1550 1551 1551 1552 1552 1552 1552 1552 1552 1552 1552 1552 1552 1552 1552 1552 1551 1551 1551 1550 1550 1550 1549 1549 1549 1549 1549 1548 1548 1547 1547 1547 1547 1546
1537 1536 1537 1538 1538 1539 1540 1542 1542 1545 1546 1546 1546 1547 1548 1549 1550 1551 1551 1551 1551 1552 1552 1552 1552 1552 1552 1552 1552 1552 1552 1551 1551 1551 1550 1550 1549 1549 1549 1548 1548 1548 1548 1548 1548 1547 1547 1546 1546
1532 1535 1536 1537 1538 1539 1539 1540 1540 1542 1544 1544 1544 1545 1546 1547 1549 1549 1550 1550 1551 1551 1551 1551 1551 1551 1551 1552 1552 1552 1552 1551 1551 1550 1550 1550 1549 1549 1549 1548 1548 1548 1548 1547 1547 1547 1547 1546 1546
1533 1535 1535 1536 1537 1538 1538 1538 1537 1539 1540 1541 1542 1543 1544 1545 1547 1548 1548 1549 1549 1550 1550 1550 1550 1551 1551 1551 1551 1551 1551 1551 1550 1550 1549 1549 1549 1548 1548 1548 1547 1547 1546 1546 1546 1546 1546 1546 1545
1533 1534 1534 1536 1537 1537 1537 1536 1534 1535 1538 1540 1540 1541 1542 1543 1544 1546 1547 1547 1548 1549 1549 1549 1549 1550 1550 1550 1550 1550 1550 1550 1549 1549 1548 1548 1548 1548 1547 1547 1547 1546 1546 1546 1545 1545 1545 1545 1545
1533 1531 1533 1535 1536 1535 1536 1538 1531 1531 1534 1536 1537 1538 1539 1540 1542 1543 1544 1545 1546 1547 1548 1548 1549 1549 1549 1549 1549 1549 1549 1549 1548 1548 1547 1547 1547 1546 1546 1546 1545 1545 1545 1544 1544 1544 1544 1544 1544
1531 1532 1532 1533 1533 1534 1533 1535 1528 1528 1530 1531 1533 1535 1537 1538 1539 1540 1542 1543 1544 1545 1546 1547 1548 1548 1548 1548 1548 1548 1548 1548 1547 1546 1546 1546 1545 1545 1545 1544 1544 1543 1543 1543 1543 1543 1543 1543 1543
1531 1532 1533 1532 1532 1539 1532 1534 1531 1524 1526 1528 1530 1533 1534 1535 1536 1538 1540 1541 1542 1543 1544 1545 1546 1546 1547 1547 1547 1547 1547 1546 1546 1545 1544 1544 1544 1543 1543 1543 1542 1542 1541 1541 1541 1541 1541 1541 1541
1530 1532 1538 1540 1539 1535 1530 1533 1528 1522 1525 1527 1529 1530 1532 1533 1534 1535 1537 1538 1540 1541 1542 1543 1544 1544 1545 1545 1545 1545 1545 1545 1544 1544 1543 1543 1542 1542 1541 1541 1540 1540 1539 1539 1539 1539 1539 1539 1539
1527 1528 1537 1544 1540 1532 1530 1530 1523 1523 1526 1528 1529 1529 1531 1532 1532 1533 1535 1536 1537 1538 1539 1540 1541 1542 1542 1543 1543 1543 1543 1543 1542 1542 1541 1541 1540 1540 1539 1539 1538 1538 1537 1537 1537 1537 1537 1537 1537
1526 1526 1525 1529 1531 1535 1527 1524 1521 1523 1524 1526 1527 1528 1529 1530 1531 1532 1533 1534 1535 1536 1537 1538 1539 1540 1540 1540 1540 1541 1541 1540 1540 1540 1539 1538 1538 1537 1537 1536 1536 1536 1535 1535 1535 1535 1535 1535 1535
1524 1523 1527 1530 1539 1538 1530 1526 1523 1521 1521 1523 1525 1526 1527 1529 1530 1531 1531 1532 1533 1534 1535 1536 1536 1537 1537 1538 1538 1538 1538 1538 1537 1537 1537 1536 1536 1535 1535 1534 1534 1534 1534 1533 1533 1533 1533 1533 1533
1526 1527 1525 1526 1528 1535 1535 1526 1515 1516 1519 1521 1523 1525 1526 1527 1528 1529 1530 1530 1531 1532 1532 1533 1534 1534 1535 1535 1535 1535 1535 1535 1535 1535 1534 1534 1533 1533 1533 1532 1532 1532 1532 1532 1531 1531 1531 1532 1532
1522 1521 1523 1529 1528 1528 1529 1525 1514 1517 1519 1521 1522 1524 1525 1526 1527 1527 1528 1528 1529 1530 1530 1531 1531 1532 1532 1532 1532 1532 1532 1532 1532 1532 1531 1531 1530 1530 1530 1530 1530 1529 1529 1529 1529 1529 1529 1529 1529